AirNav   Everest Fuels
 
 897 users online  

88AZ
(formerly E75)
Grapevine Airstrip
Roosevelt, Arizona, USA

GOING TO ROOSEVELT?


FAA INFORMATION EFFECTIVE 31 JANUARY 2019

Location

FAA Identifier: 88AZ
Lat/Long: 33-38-27.2700N / 111-03-24.9000W
33-38.454500N / 111-03.415000W
33.6409083 / -111.0569167
(estimated)
Elevation: 2329 ft. / 710 m (estimated)
Variation: 11E (2015)
From city: 5 miles SE of ROOSEVELT, AZ
Time zone: UTC -7 (year round; does not observe DST)
Zip code: 85545

Airport Operations

Airport use: Private use. Permission required prior to landing
Activation date: 11/2016
Control tower: no
ARTCC: ALBUQUERQUE CENTER
FSS: PRESCOTT FLIGHT SERVICE STATION
Attendance: 
Wind indicator: yes
Segmented circle: yes

Airport Communications

CTAF: 122.9

Nearby radio navigation aids

VOR radial/distance  VOR name  Freq  Var
IWAr043/36.0WILLIE VORTAC113.3013E

Airport Services

Runway Information

Runway 17/35

Dimensions: 3800 x 40 ft. / 1158 x 12 m
Surface: asphalt/concrete
RUNWAY 17  RUNWAY 35
Traffic pattern: leftleft
Runway heading: 159 magnetic, 170 true339 magnetic, 350 true

Airport Ownership and Management from official FAA records

Ownership: Publicly-owned
Owner: U.S. FOREST SERV, TONTO NATL FOREST
TONTO BASIN DISTRICT, 28079 N. AZ HWY 188
ROOSEVELT, AZ 85545
Phone (602) 225-5395
Manager: U.S. FOREST SERV, TONTO NATL FOREST
TONTO BASIN DISTRICT, 28079 N. AZ HWY 188
ROOSEVELT, AZ 85545
Phone (602) 225-5395

Additional Remarks

USE AT PILOTS OWN RISK, NO TRAINING OR TOUCH AND GOES PERMITED.
CONTACT GRAPEVINE@AZPILOTS.ORG FOR CAMPING AND USE INFO.
HAZARDOUS RUNWAY EDGES, AVOID USAGE WHEN CROSS WINDS PRESENT.
RISING TERRAIN WEST OF RWY.
MILTARY TRAINING ACTIVITY POSSIBLE.
DIRT PARKING EAST SIDE OF RWY AT MIDFIELD, NO TIE DOWNS. LIMITED RAMP PARKING W/TIE DOWNS AT WEST RAMP. CALM WIND RWY 17.
AVOID OVERFLIGHT OF TONTO NATIONAL MONUMENT, 3.25 MILES WNW OF AIRSTRIP, OR ANY CAMP GROUNDS.

Instrument Procedures

There are no published instrument procedures at 88AZ.

Some nearby airports with instrument procedures:

P13 - San Carlos Apache Airport (26 nm SE)
KFFZ - Falcon Field Airport (35 nm W)
KIWA - Phoenix-Mesa Gateway Airport (36 nm SW)
KPAN - Payson Airport (40 nm N)
KSDL - Scottsdale Airport (43 nm W)
 
Loc | Ops | Rwys | IFR | FBO | Links
Com | Nav | Svcs | Stats | Notes
Aerial photo
No photo
 
Airport distance calculator
Flying to Grapevine Airstrip? Find the distance to fly.

From to 88AZ

Sunrise and sunset
Times for 17-Feb-2019
 Local
(UTC-7)
 Zulu
(UTC)
Morning civil twilight06:4213:42
Sunrise07:0714:07
Sunset18:0901:09
Evening civil twilight18:3501:35

Current date and time
Zulu (UTC)  18-Feb-2019 01:06:32
Local (UTC-7)  17-Feb-2019 18:06:32
 
METAR
KFFZ 
35nm W 
180054Z AUTO 23010KT 10SM BKN080 13/M06 A2992 RMK AO2 SLP122 T01281056
KIWA 
36nm SW 
180048Z 24016KT 30SM SCT080 13/M04 A2994
KPAN 
40nm N 
180055Z AUTO VRB05KT 9SM BKN025 BKN036 OVC055 00/M03 A2986 RMK AO2
KSDL 
43nm W 
180053Z 23011KT 10SM FEW075 OVC095 13/M05 A2992 RMK AO2 SLP125 T01281050
KCHD 
44nm SW 
180047Z 21018KT 10SM BKN060 14/M05 A2993
KP08 
46nm SW 
180055Z AUTO 26005KT 10SM SCT080 12/M02 A2995 RMK AO2
TAF
KIWA 
36nm SW 
172038Z 1721/1818 24013G22KT P6SM FEW050 BKN060 FM180200 21009KT P6SM VCSH FEW050 BKN070 BKN100 FM180800 21009KT P6SM -SHRA SCT040 BKN060 OVC080 FM181700 20007KT P6SM VCSH SCT040 BKN050
KSDL 
43nm W 
171754Z 1718/1818 21007KT P6SM SKC FM171900 24009G16KT P6SM FEW040 SCT060 FM180100 24008KT P6SM VCSH SCT040 BKN060 BKN090 FM180800 16007KT 6SM -SHRA BR SCT030 BKN050 OVC070
NOTAMs
Click for the latest NOTAMs
NOTAMs are issued by the DoD/FAA and will open in a separate window not controlled by AirNav.

 

 
 

Would you like to see your business listed on this page?

 If your business provides an interesting product or service to pilots, flight crews, aircraft, or users of the Grapevine Airstrip, you should consider listing it here.  To start the listing process, click on the button below
 
Add a business
 

Other Pages about Grapevine Airstrip

Update a link
 
Copyright © AirNav, LLC. All rights reserved. Privacy Policy  Contact